SP4LIN-15 Weather Reports


time (UTC)temp
C
wind
direction
speed
KPH
gust
KPH
rain 1hr
cm
rain 24hr
cm
rain mn
cm
humidity
%
barometer
mb
20260508043857 7 45 0.0 6.4 0.00 0.00 0.00 83 1010.6
20260508042357 7 45 8.0 8.0 0.00 0.00 0.00 85 1010.5
20260508040857 7 45 4.8 8.0 0.00 0.00 0.00 86 1010.4
20260508035357 7 45 0.0 4.8 0.00 0.00 0.00 86 1010.4
20260508033857 7 45 3.2 3.2 0.00 0.00 0.00 86 1010.2
20260508032357 7 45 0.0 9.7 0.00 0.00 0.00 86 1010.2
20260508030857 7 0 9.7 9.7 0.00 0.00 0.00 87 1010.1
20260508025357 7 22 4.8 4.8 0.00 0.00 0.00 87 1010.2
20260508023857 7 45 1.6 4.8 0.00 0.00 0.00 87 1010.1
20260508022357 7 0 6.4 6.4 0.00 0.00 0.00 87 1010.1
20260508020857 7 22 3.2 3.2 0.00 0.00 0.00 87 1010.0
20260508015357 7 22 3.2 3.2 0.00 0.00 0.00 88 1010.1
20260508013857 7 22 0.0 4.8 0.00 0.00 0.00 88 1009.9
20260508012358 6 45 4.8 6.4 0.00 0.00 0.00 88 1010.0
20260508010858 6 0 0.0 0.0 0.00 0.00 0.00 88 1009.9
20260508005358 6 0 4.8 6.4 0.00 0.00 0.00 88 1010.0
20260508003858 6 0 3.2 4.8 0.00 0.00 0.00 87 1010.0
20260508002358 6 337 3.2 6.4 0.00 0.00 0.00 87 1009.8
20260508000858 6 337 0.0 1.6 0.00 0.00 0.00 87 1009.8
20260507235358 6 337 0.0 3.2 0.00 0.00 0.00 87 1009.7
20260507233858 6 337 3.2 4.8 0.00 0.00 0.00 87 1009.7
20260507232358 6 337 1.6 1.6 0.00 0.00 0.00 87 1009.8
20260507230858 6 337 1.6 3.2 0.00 0.00 0.00 87 1009.4
20260507225358 6 337 6.4 6.4 0.00 0.00 0.00 87 1009.5
20260507223858 6 45 0.0 3.2 0.00 0.00 0.00 87 1009.3
20260507222358 6 0 3.2 3.2 0.00 0.00 0.00 87 1009.4
20260507220858 6 45 3.2 3.2 0.00 0.00 0.00 87 1009.3
20260507215358 6 0 0.0 4.8 0.00 0.00 0.00 86 1009.4
20260507213858 6 0 6.4 6.4 0.00 0.00 0.00 86 1009.4
20260507212358 6 337 0.0 6.4 0.00 0.00 0.00 86 1009.5
20260507210858 6 0 6.4 6.4 0.00 0.00 0.00 86 1009.4
20260507205358 6 0 3.2 3.2 0.00 0.00 0.00 86 1009.2
20260507203858 6 337 4.8 8.0 0.00 0.00 0.00 86 1008.9
20260507202358 6 337 6.4 8.0 0.00 0.00 0.00 85 1008.7
20260507200858 6 0 4.8 8.0 0.00 0.00 0.00 85 1008.5
20260507195358 6 0 1.6 6.4 0.00 0.00 0.00 85 1008.7
20260507193858 6 337 0.0 6.4 0.00 0.00 0.00 84 1008.7
20260507192358 7 337 4.8 4.8 0.00 0.00 0.00 84 1008.6
20260507190858 7 0 4.8 4.8 0.00 0.00 0.00 84 1008.5
20260507185358 7 337 4.8 4.8 0.00 0.00 0.00 83 1008.2
20260507183858 7 22 3.2 6.4 0.00 0.00 0.00 83 1007.9
20260507182358 7 0 0.0 4.8 0.00 0.00 0.00 82 1007.7
20260507180858 7 22 3.2 8.0 0.00 0.00 0.00 82 1007.6
20260507175358 7 0 6.4 12.9 0.00 0.00 0.00 81 1007.6
20260507173858 7 0 8.0 9.7 0.00 0.00 0.00 81 1007.5
20260507172358 7 337 16.1 16.1 0.00 0.00 0.00 80 1007.4
20260507170859 8 0 6.4 6.4 0.00 0.00 0.00 80 1007.3
20260507165358 8 22 4.8 6.4 0.00 0.00 0.00 80 1007.7
20260507163858 8 0 11.3 11.3 0.00 0.00 0.00 80 1007.7
20260507162358 8 22 6.4 9.7 0.00 0.00 0.00 79 1007.6
20260507160858 8 0 8.0 17.7 0.00 0.00 0.00 79 1007.5
20260507155358 8 0 9.7 12.9 0.00 0.00 0.00 78 1007.6
20260507153858 8 337 11.3 11.3 0.00 0.00 0.00 77 1007.6
20260507152359 8 337 3.2 6.4 0.00 0.00 0.00 76 1007.5
20260507150859 8 0 8.0 8.0 0.00 0.00 0.00 75 1007.3
20260507145359 10 270 3.2 8.0 0.00 0.00 0.00 74 1007.3
20260507143859 10 0 3.2 12.9 0.00 0.00 0.00 74 1007.7
20260507142359 10 0 9.7 9.7 0.00 0.00 0.00 73 1007.1
20260507140859 10 337 6.4 9.7 0.00 0.00 0.00 72 1006.9
20260507135415 10 0 11.3 11.3 0.00 0.00 0.00 75 1007.1
20260507133859 10 337 9.7 16.1 0.00 0.00 0.00 74 1007.1
20260507132359 10 0 9.7 9.7 0.00 0.00 0.00 72 1006.8
20260507130859 11 0 9.7 11.3 0.00 0.00 0.00 73 1006.5
20260507125359 11 337 11.3 11.3 0.00 0.00 0.00 73 1006.5
20260507123859 11 337 9.7 11.3 0.00 0.00 0.00 73 1006.4
20260507122359 11 337 11.3 11.3 0.00 0.00 0.00 74 1006.1
20260507120859 10 337 11.3 11.3 0.00 0.00 0.00 77 1006.1
20260507115359 9 337 14.5 14.5 0.00 0.00 0.00 79 1006.3
20260507113859 8 337 9.7 9.7 0.00 0.00 0.00 79 1006.2
20260507112359 8 337 3.2 9.7 0.00 0.00 0.00 80 1006.1
20260507110859 8 337 11.3 11.3 0.00 0.00 0.00 80 1005.9
20260507105359 8 337 9.7 11.3 0.00 0.00 0.00 80 1005.7
20260507103859 8 337 11.3 12.9 0.00 0.00 0.00 79 1005.6
20260507102359 9 337 11.3 11.3 0.00 0.00 0.00 80 1005.4
20260507100859 8 22 9.7 9.7 0.00 0.00 0.00 82 1005.2
20260507095359 8 315 9.7 19.3 0.00 0.00 0.00 83 1005.2
20260507093859 7 0 6.4 9.7 0.00 0.00 0.00 83 1005.1
20260507092359 8 337 12.9 12.9 0.00 0.00 0.00 83 1005.1
20260507090859 7 337 11.3 11.3 0.00 0.00 0.00 84 1004.8
20260507085400 7 337 8.0 11.3 0.00 0.00 0.00 83 1004.5
20260507083859 8 337 11.3 11.3 0.00 0.00 0.00 83 1004.2
20260507082359 8 337 9.7 12.9 0.00 0.00 0.00 83 1004.0
20260507080859 7 337 8.0 12.9 0.00 0.00 0.00 84 1003.9
20260507075359 7 337 11.3 11.3 0.00 0.00 0.00 84 1003.9
20260507073859 7 22 4.8 4.8 0.00 0.00 0.00 85 1003.7
20260507072359 7 315 8.0 12.9 0.00 0.00 0.00 85 1003.6
20260507070859 7 337 12.9 12.9 0.00 0.00 0.00 85 1003.5
20260507065359 7 337 9.7 9.7 0.00 0.00 0.00 86 1003.3
20260507063859 7 0 3.2 9.7 0.00 0.00 0.00 85 1003.1
20260507062359 7 337 6.4 9.7 0.00 0.00 0.00 86 1002.8
20260507060859 7 337 9.7 11.3 0.00 0.00 0.00 86 1002.7
20260507055359 7 315 6.4 9.7 0.00 0.00 0.00 86 1002.6
20260507053900 7 315 8.0 8.0 0.00 0.00 0.00 87 1002.6
20260507052359 7 0 9.7 9.7 0.00 0.00 0.00 87 1002.3
20260507050900 7 0 4.8 9.7 0.00 0.00 0.00 88 1002.3
20260507045400 7 337 9.7 11.3 0.00 0.00 0.00 89 1002.2